[[{"header":{"parameterUnit":"m.s-1","parameterCategory":1,"la1":30.2991,"la2":30.254,"lo1":-89.0895,"lo2":-89.0444,"dy":0.0017,"dx":0.0017,"nx":28,"ny":28,"refTime":"2024-03-26T21:00:00:Z","depth":0,"parameterNumber":2,"parameterNumberName":"U-component_of_WINDS"},"data":[0,0,0,0,0,0,0,0,0,0,0,0,0,0,0,0,0,0,0,0,0,0,0,0,0,0,0,0,0,0,0,0,0,0,0,0,0,0,0,0,0,0,0,0,0,0,0,0,0,0,0,0,0,0,0,0,0,0,1.4497,1.4497,0,1.4511,1.4511,1.4512,1.4483,1.4482,1.4481,1.448,1.4494,1.4495,1.4496,0,0,0,0,0,0,0,0,0,0,0,0,0,1.4445,1.4446,1.4497,1.4497,1.4497,1.4511,1.4511,1.4512,1.4483,1.4482,1.448,1.4479,1.4493,1.4495,1.4496,0,0,0,0,0,0,0,0,0,0,0,0,0,1.4464,1.4446,1.4497,1.4485,1.4484,1.4511,1.4511,1.4512,1.4483,1.4482,1.448,1.4479,1.4493,1.4495,1.4497,1.4536,0,0,1.4502,1.4503,0,0,0,0,0,0,0,0,1.4463,1.4466,1.4486,1.4486,1.4485,1.4494,1.4498,1.452,1.4483,1.4483,1.448,1.4478,1.4495,1.4496,1.4502,1.4537,1.4538,1.4502,1.4504,1.4504,1.4505,0,0,0,0,0,0,0,1.4462,1.4465,1.4503,1.4487,1.4486,1.4478,1.448,1.4502,1.4497,1.4483,1.4481,1.4483,1.4494,1.45,1.4502,1.4538,1.4502,1.4504,1.4505,1.4506,1.4607,1.4608,0,0,0,0,0,0,1.4462,1.4464,1.4502,1.4503,1.447,1.448,1.4482,1.4492,1.4496,1.4496,1.4484,1.4482,1.4498,1.45,1.4503,1.455,1.4504,1.4506,1.4507,1.4605,1.4607,1.4609,0,0,0,0,0,0,1.4461,1.4466,1.4502,1.4483,1.4487,1.4483,1.4495,1.4493,1.45,1.4497,1.4496,1.4492,1.4497,1.45,1.4528,1.455,1.4507,1.4509,1.4603,1.4606,1.4608,1.4645,0,0,0,0,0,0,1.446,1.4465,1.4481,1.4484,1.4488,1.4527,1.4496,1.4495,1.4503,1.45,1.4504,1.4504,1.4496,1.4526,1.453,1.4552,1.451,1.4601,1.4605,1.4607,1.4642,1.4649,1.4654,0,0,0,0,0,1.4458,1.449,1.4482,1.4486,1.4507,1.4529,1.4531,1.4522,1.4505,1.452,1.4519,1.4503,1.4547,1.4529,1.4534,1.4556,1.46,1.4604,1.4607,1.4639,1.4647,1.4654,0,0,0,0,0,0,1.449,1.4491,1.4481,1.4515,1.4522,1.4524,1.4543,1.4531,1.4543,1.4539,1.4527,1.4528,1.4559,1.456,1.454,1.4596,1.4571,1.4575,1.4594,1.4601,1.4607,1.4606,1.4512,0,0,0,0,0,1.4501,1.4518,1.4518,1.4548,1.4552,1.4547,1.4556,1.4548,1.4555,1.4558,1.4558,1.4565,1.458,1.4591,1.4605,1.4642,1.4643,1.466,1.4666,1.4671,1.4675,1.4695,1.4703,1.462,1.462,1.462,0,0,1.4524,1.4526,1.4538,1.4555,1.4559,1.4578,1.455,1.457,1.4584,1.4561,1.4588,1.4589,1.4595,1.4629,1.4643,1.4631,1.4698,1.4675,1.4679,1.4681,1.47,1.4708,1.4715,1.4623,1.4622,1.4622,0,0,1.4575,1.4579,1.4605,1.461,1.4617,1.4613,1.462,1.4623,1.4623,1.465,1.4633,1.4649,1.4675,1.4681,1.4688,1.4742,1.4728,1.4746,1.4778,1.4798,1.4804,1.481,1.483,1.4837,1.4751,1.4751,1.4751,0,1.4603,1.463,1.462,1.4642,1.465,1.463,1.4656,1.4662,1.4673,1.4679,1.4665,1.4698,1.4701,1.4735,1.4749,1.4754,1.4761,1.4746,1.4804,1.481,1.4815,1.4834,1.4841,1.4753,1.4753,1.4752,1.4752,0,1.4664,1.4683,1.4703,1.4715,1.4725,1.4749,1.4743,1.4754,1.4746,1.4743,1.4771,1.4774,1.4789,1.4796,1.4788,1.483,1.4822,1.4806,1.4781,1.4826,1.4843,1.485,1.4756,1.4755,1.4755,1.4754,0,0,1.4736,1.4742,1.475,1.4755,1.4761,1.4776,1.4799,1.4813,1.4824,1.4832,1.4851,1.4874,1.486,1.4867,1.486,1.4877,1.492,1.4859,1.4859,1.4871,1.4967,1.4979,1.4987,1.4911,1.4912,1.4914,1.4966,0,1.4787,1.4827,1.4819,1.4858,1.4876,1.4858,1.4878,1.4884,1.4883,1.4897,1.4895,1.4912,1.4892,1.4896,1.4913,1.4912,1.4939,1.4908,1.4929,1.493,1.4928,1.4996,1.5009,1.5059,1.4973,1.4974,1.4975,0,1.4852,1.4864,1.4905,1.4909,1.4916,1.4935,1.4947,1.4962,1.4968,1.4966,1.4974,1.4963,1.4986,1.4961,1.4993,1.4971,1.4979,1.498,1.4982,1.4984,1.4955,1.5,1.5074,1.5082,1.4985,1.4985,1.4984,0,1.4902,1.4927,1.4955,1.496,1.4965,1.4979,1.4982,1.4987,1.4996,1.5007,1.5013,1.5027,1.5034,1.5045,1.5038,1.502,1.5071,1.5044,1.507,1.507,1.5081,1.5081,1.5158,1.5086,1.5086,1.5086,1.5086,0,1.496,1.4986,1.4977,1.4995,1.5023,1.5013,1.5042,1.5042,1.5047,1.5065,1.5049,1.5066,1.5055,1.5071,1.5065,1.5093,1.5096,1.5095,1.5093,1.5096,1.5097,1.5102,1.5098,1.5088,1.5088,1.5087,1.5087,0,1.502,1.5015,1.5044,1.5047,1.5048,1.5069,1.5072,1.5088,1.5085,1.5107,1.5112,1.5108,1.5125,1.5119,1.5138,1.5134,1.5169,1.5163,1.5167,1.5166,1.5191,1.5189,1.5275,1.5286,1.5207,1.5207,1.5208,0,1.5058,1.5077,1.5082,1.5093,1.5097,1.5114,1.5123,1.5114,1.5125,1.5134,1.5149,1.5165,1.5178,1.5207,1.5205,1.522,1.5214,1.5243,1.5216,1.5219,1.5215,1.5214,1.5216,1.5248,1.5249,1.525,1.5251,0,1.5125,1.5122,1.5136,1.515,1.5162,1.5172,1.5181,1.5191,1.5182,1.5194,1.5212,1.5222,1.5241,1.5258,1.5271,1.5273,1.5261,1.5259,1.5266,1.5269,1.5271,1.5271,1.5182,1.5257,1.5257,1.5256,1.5256,1.5255,1.5176,1.5192,1.5199,1.5215,1.5221,1.523,1.5245,1.5245,1.526,1.5275,1.5268,1.5289,1.5295,1.5311,1.5316,1.5332,1.5321,1.533,1.5333,1.5335,1.5339,1.5269,1.5334,1.5334,1.5334,1.5334,1.5334,0,1.5243,1.5246,1.5262,1.5275,1.5288,1.5275,1.5284,1.5296,1.5314,1.5321,1.5334,1.5355,1.5371,1.5371,1.5386,1.5398,1.5393,1.5403,1.5402,1.5403,1.5348,1.5341,1.5407,1.5407,1.5407,1.5407,1.5407,1.5407,1.528,1.5308,1.5305,1.5336,1.5339,1.5359,1.5365,1.5373,1.5379,1.5403,1.5416,1.5416,1.542,1.5435,1.5449,1.5449,1.5455,1.5467,1.5465,1.5414,1.5406,1.54,1.5393,1.5469,1.5469,1.5518,1.5519,1.5519]},{"header":{"parameterUnit":"m.s-1","parameterCategory":1,"la1":30.2991,"la2":30.254,"lo1":-89.0895,"lo2":-89.0444,"dy":0.0017,"dx":0.0017,"nx":28,"ny":28,"refTime":"2024-03-26T21:00:00:Z","depth":0,"parameterNumber":3,"parameterNumberName":"V-component_of_WINDS"},"data":[0,0,0,0,0,0,0,0,0,0,0,0,0,0,0,0,0,0,0,0,0,0,0,0,0,0,0,0,0,0,0,0,0,0,0,0,0,0,0,0,0,0,0,0,0,0,0,0,0,0,0,0,0,0,0,0,0,0,-2.4347,-2.4349,0,-2.4519,-2.4521,-2.4523,-2.4562,-2.456,-2.4559,-2.4558,-2.4735,-2.474,-2.4746,0,0,0,0,0,0,0,0,0,0,0,0,0,-2.4055,-2.406,-2.4347,-2.4349,-2.4352,-2.4519,-2.4521,-2.4523,-2.4562,-2.456,-2.4559,-2.4558,-2.4733,-2.474,-2.4747,0,0,0,0,0,0,0,0,0,0,0,0,0,-2.42,-2.4062,-2.4347,-2.4391,-2.4396,-2.4518,-2.4521,-2.4524,-2.4562,-2.456,-2.4559,-2.4557,-2.4731,-2.4739,-2.4748,-2.4838,0,0,-2.4774,-2.4778,0,0,0,0,0,0,0,0,-2.4191,-2.421,-2.4382,-2.4388,-2.4395,-2.4517,-2.4483,-2.4629,-2.4563,-2.4499,-2.4558,-2.4556,-2.4664,-2.4678,-2.4714,-2.4846,-2.4854,-2.4775,-2.4781,-2.4784,-2.4787,0,0,0,0,0,0,0,-2.4181,-2.4203,-2.4415,-2.4385,-2.4392,-2.4403,-2.4421,-2.4511,-2.459,-2.4505,-2.4508,-2.4528,-2.4667,-2.4706,-2.4719,-2.4857,-2.4775,-2.4783,-2.4788,-2.4792,-2.5074,-2.5076,0,0,0,0,0,0,-2.4163,-2.4195,-2.441,-2.442,-2.4286,-2.4409,-2.443,-2.448,-2.4589,-2.4604,-2.4529,-2.4529,-2.4692,-2.4708,-2.4725,-2.484,-2.4784,-2.4792,-2.4798,-2.5072,-2.5075,-2.5077,0,0,0,0,0,0,-2.4157,-2.4182,-2.4403,-2.4309,-2.4337,-2.4416,-2.4472,-2.4484,-2.4523,-2.4607,-2.4622,-2.4554,-2.4691,-2.4713,-2.481,-2.4846,-2.4796,-2.4804,-2.5069,-2.5073,-2.5076,-2.5068,0,0,0,0,0,0,-2.4148,-2.418,-2.4214,-2.4309,-2.4342,-2.4484,-2.4474,-2.4489,-2.4538,-2.4539,-2.4635,-2.4649,-2.4691,-2.4797,-2.4819,-2.4857,-2.4811,-2.5066,-2.5071,-2.5075,-2.5066,-2.5071,-2.5075,0,0,0,0,0,-2.4138,-2.4205,-2.4216,-2.4241,-2.4387,-2.4486,-2.4506,-2.4553,-2.454,-2.4576,-2.4631,-2.4646,-2.4839,-2.4807,-2.4832,-2.4873,-2.5064,-2.507,-2.5074,-2.5063,-2.507,-2.5075,0,0,0,0,0,0,-2.4112,-2.4218,-2.4231,-2.4331,-2.4399,-2.4493,-2.4539,-2.4558,-2.4631,-2.463,-2.4686,-2.4707,-2.4801,-2.4847,-2.4809,-2.4968,-2.4951,-2.4961,-2.4934,-2.4941,-2.4946,-2.4933,-2.4819,0,0,0,0,0,-2.4118,-2.4189,-2.4278,-2.4358,-2.4392,-2.4459,-2.4504,-2.4535,-2.4608,-2.4638,-2.4699,-2.477,-2.4847,-2.4897,-2.4972,-2.5072,-2.5095,-2.5114,-2.5118,-2.5122,-2.513,-2.5189,-2.5199,-2.5094,-2.5094,-2.5094,0,0,-2.4131,-2.4198,-2.4239,-2.4354,-2.4411,-2.4485,-2.4483,-2.4561,-2.4616,-2.465,-2.4746,-2.4793,-2.4877,-2.4976,-2.5023,-2.5017,-2.5165,-2.5129,-2.5131,-2.5137,-2.5195,-2.5205,-2.5214,-2.5097,-2.5096,-2.5096,0,0,-2.4192,-2.425,-2.4323,-2.438,-2.4466,-2.4511,-2.4528,-2.462,-2.4653,-2.475,-2.4777,-2.4844,-2.4975,-2.5034,-2.508,-2.5166,-2.5183,-2.5189,-2.5215,-2.5271,-2.5279,-2.5287,-2.5319,-2.5329,-2.5197,-2.5197,-2.5197,0,-2.4198,-2.4309,-2.4358,-2.4435,-2.4485,-2.4519,-2.4594,-2.4647,-2.4754,-2.4788,-2.478,-2.4946,-2.5004,-2.5119,-2.514,-2.5177,-2.5199,-2.5178,-2.5274,-2.5282,-2.529,-2.5321,-2.5333,-2.5197,-2.5197,-2.5197,-2.5197,0,-2.4312,-2.4389,-2.4438,-2.454,-2.4596,-2.4671,-2.4733,-2.4784,-2.481,-2.4856,-2.4956,-2.5027,-2.5118,-2.5148,-2.5174,-2.5267,-2.5261,-2.5263,-2.5247,-2.53,-2.533,-2.5342,-2.5198,-2.5198,-2.5198,-2.5197,0,0,-2.4361,-2.449,-2.4508,-2.4555,-2.4653,-2.4714,-2.4792,-2.4881,-2.4924,-2.4997,-2.5064,-2.5175,-2.5178,-2.5231,-2.5264,-2.5314,-2.5379,-2.531,-2.5313,-2.5321,-2.5488,-2.5486,-2.5499,-2.5391,-2.5393,-2.5395,-2.5481,0,-2.4435,-2.4575,-2.4622,-2.4738,-2.4811,-2.4844,-2.4913,-2.4981,-2.5026,-2.5095,-2.5146,-2.5224,-2.5221,-2.5254,-2.5304,-2.536,-2.5413,-2.5354,-2.5455,-2.5458,-2.5433,-2.5515,-2.5513,-2.5591,-2.5493,-2.5495,-2.5496,0,-2.454,-2.4614,-2.4737,-2.4828,-2.486,-2.4921,-2.5007,-2.5072,-2.5151,-2.5181,-2.5241,-2.5271,-2.5355,-2.5335,-2.5452,-2.5411,-2.5455,-2.5489,-2.5493,-2.5505,-2.548,-2.5529,-2.5616,-2.5628,-2.5515,-2.5514,-2.5512,0,-2.4565,-2.4696,-2.4787,-2.4826,-2.4934,-2.4976,-2.5023,-2.51,-2.5151,-2.5227,-2.5261,-2.5345,-2.5392,-2.5457,-2.551,-2.549,-2.5623,-2.5606,-2.5651,-2.565,-2.5678,-2.5675,-2.5774,-2.5705,-2.5705,-2.5704,-2.5704,0,-2.4643,-2.4717,-2.48,-2.4856,-2.4941,-2.4995,-2.5078,-2.5127,-2.5195,-2.5262,-2.5297,-2.5359,-2.5425,-2.5496,-2.5538,-2.563,-2.565,-2.5678,-2.5688,-2.5675,-2.5672,-2.5705,-2.5701,-2.5708,-2.5707,-2.5706,-2.5706,0,-2.4685,-2.4743,-2.4845,-2.4939,-2.4964,-2.5022,-2.5104,-2.516,-2.5207,-2.5292,-2.5315,-2.539,-2.5476,-2.5535,-2.5645,-2.5674,-2.5773,-2.5782,-2.5747,-2.5752,-2.5794,-2.5789,-2.5918,-2.5938,-2.5854,-2.5855,-2.5855,0,-2.4731,-2.4789,-2.4889,-2.4937,-2.4984,-2.5059,-2.5112,-2.5168,-2.5222,-2.5317,-2.5362,-2.5451,-2.5524,-2.566,-2.5725,-2.581,-2.5822,-2.5862,-2.5835,-2.5821,-2.5824,-2.5821,-2.5827,-2.5866,-2.5866,-2.5867,-2.5867,0,-2.4807,-2.4833,-2.4907,-2.4993,-2.5054,-2.5124,-2.5194,-2.5231,-2.53,-2.5358,-2.5447,-2.5504,-2.5617,-2.5705,-2.5797,-2.5846,-2.5869,-2.5875,-2.589,-2.5878,-2.5855,-2.5869,-2.5759,-2.5872,-2.5871,-2.5871,-2.5871,-2.5871,-2.4853,-2.4907,-2.4987,-2.5069,-2.5128,-2.5193,-2.5251,-2.5306,-2.538,-2.5477,-2.5506,-2.5598,-2.5677,-2.5802,-2.5854,-2.5927,-2.5924,-2.5946,-2.5951,-2.5956,-2.5957,-2.5843,-2.5944,-2.5944,-2.5944,-2.5944,-2.5944,0,-2.4932,-2.4985,-2.506,-2.5158,-2.5223,-2.5238,-2.5317,-2.537,-2.5451,-2.5523,-2.5595,-2.5698,-2.5783,-2.5855,-2.5945,-2.599,-2.6003,-2.6012,-2.6009,-2.6021,-2.5954,-2.5932,-2.6,-2.6,-2.6,-2.6,-2.6,-2.6,-2.4981,-2.5073,-2.5109,-2.5232,-2.5285,-2.5375,-2.5419,-2.548,-2.5538,-2.5651,-2.5722,-2.5769,-2.5841,-2.5936,-2.6016,-2.6035,-2.6067,-2.6074,-2.6095,-2.6031,-2.6025,-2.6019,-2.5999,-2.608,-2.608,-2.6157,-2.6157,-2.6158]}]]